Wind_Speed
21 21 21 20 19 18 16 17 17 17 18 17 18 18 19 19 19 20 19 18 17 17 17 17 17 17 17 17 17 17 17 16 15 15 14 14 14 14 14 14 14 13 13 13 13 13 12 12 12
22 22 22 22 20 19 18 19 18 18 18 18 19 19 20 20 21 21 20 19 19 19 18 19 19 19 19 19 19 19 18 18 18 17 17 16 16 16 15 15 15 15 15 15 15 15 14 14 14
23 23 23 22 22 21 20 19 19 19 19 19 19 20 20 21 21 21 21 21 21 20 20 20 21 21 21 21 21 20 20 20 20 20 19 19 18 18 17 17 16 17 17 16 16 16 16 16 16
24 24 24 23 22 21 21 21 20 20 20 20 20 21 21 21 22 22 22 22 22 22 22 22 22 22 23 23 23 22 22 22 22 22 21 21 20 20 20 19 18 18 18 18 18 18 18 19 19
24 24 24 24 23 22 22 22 21 21 21 21 21 21 22 22 22 22 22 22 23 23 23 23 23 23 24 24 24 24 24 24 24 23 23 23 22 22 22 22 21 20 20 20 21 21 21 20 21
25 25 25 24 24 23 23 23 23 23 23 23 23 23 22 22 22 22 23 23 23 24 24 24 24 24 25 25 26 26 25 25 25 25 25 24 24 24 24 24 23 23 23 23 23 23 23 23 23
25 25 25 25 25 25 25 24 24 25 25 25 25 25 24 24 23 23 24 24 24 24 25 25 25 25 25 25 26 27 27 27 26 26 27 27 26 26 26 26 25 25 25 25 25 25 25 25 25
25 26 26 26 26 26 26 26 25 26 26 26 26 26 25 25 25 25 25 25 26 26 25 26 26 26 26 26 27 27 27 28 28 28 28 28 28 28 28 27 27 27 27 27 27 27 27 27 27
26 26 26 26 27 27 27 27 27 27 28 28 28 28 27 27 27 27 27 27 27 27 27 27 27 27 28 28 28 28 29 29 29 29 29 29 29 29 29 29 29 29 28 28 28 28 29 29 29
27 27 26 27 28 28 29 29 28 29 29 29 29 29 29 29 29 29 29 29 28 28 29 29 29 29 29 29 30 30 30 31 31 31 30 30 30 30 30 29 29 29 30 30 30 30 30 30 30
28 28 27 28 29 30 29 29 30 30 30 30 31 31 30 30 30 30 30 30 30 30 30 31 31 31 31 31 32 32 32 32 32 32 32 32 32 32 32 31 31 31 31 31 31 31 31 31 31
29 28 29 30 30 31 30 31 31 31 30 32 32 32 32 32 32 32 32 32 32 32 32 33 33 33 33 33 34 34 34 33 34 34 34 34 34 34 34 34 33 33 33 33 33 33 33 33 33
29 29 30 31 31 31 31 31 31 30 31 32 33 33 33 33 33 33 33 34 34 34 35 35 35 36 36 36 36 36 36 35 35 36 36 36 36 36 37 36 36 36 36 36 36 36 35 35 35
29 30 30 30 30 31 31 31 32 31 32 33 33 34 35 35 35 35 35 36 36 36 37 37 37 37 37 38 38 38 38 37 37 37 38 37 38 38 39 39 39 39 38 38 38 38 38 38 37
29 30 30 30 30 31 32 31 31 32 33 34 34 35 36 36 36 36 36 37 37 37 38 38 39 39 39 39 39 39 39 39 38 38 39 39 40 40 40 41 41 41 41 41 41 41 40 40 40
31 31 30 30 31 32 33 30 30 32 33 34 35 35 36 36 37 37 37 37 37 37 38 38 39 40 40 40 40 40 40 40 40 39 40 40 41 41 41 42 43 44 44 44 43 43 43 43 43
32 32 32 32 32 34 34 31 31 32 33 34 35 36 37 37 37 37 37 37 37 38 38 38 39 39 40 40 40 41 41 41 41 41 41 42 42 43 43 44 45 45 46 46 46 45 45 45 45
33 33 32 33 34 35 35 33 32 33 34 34 35 36 36 37 37 37 37 38 38 38 38 38 38 38 39 40 41 41 42 42 42 42 42 43 44 44 46 46 47 47 47 48 48 47 47 47 47
33 33 33 34 35 36 36 35 34 34 35 35 35 35 36 37 37 37 38 38 38 38 38 38 38 39 39 40 41 42 43 43 43 43 44 44 45 45 47 47 48 49 49 49 49 49 49 49 49
34 35 35 36 37 37 38 37 35 35 36 35 35 35 36 36 36 38 38 38 38 38 38 38 39 39 39 40 42 43 44 44 45 45 45 46 46 47 48 49 50 50 51 50 51 51 51 51 51
35 35 35 37 38 38 39 39 36 36 36 36 35 35 36 37 37 38 38 38 38 37 38 39 39 40 40 41 43 44 44 46 46 46 46 47 48 49 49 50 50 51 52 52 51 52 52 51 51
36 36 37 38 39 39 39 40 37 36 36 36 36 36 36 36 37 38 38 38 38 38 39 40 40 41 41 42 44 45 46 47 47 48 48 48 48 49 50 50 51 52 52 53 52 52 53 54 53
37 37 38 38 39 41 40 42 38 37 37 37 37 37 37 37 38 38 39 39 39 39 39 40 41 42 43 44 45 46 47 47 48 48 49 49 49 50 51 51 52 52 52 53 53 54 54 54 54
38 38 38 39 41 43 40 42 41 38 37 37 37 37 38 38 38 39 39 40 40 40 40 41 42 43 43 44 45 46 47 47 48 48 49 50 50 50 52 52 52 52 52 53 53 54 54 54 54
38 37 39 41 42 43 41 42 41 38 38 38 37 38 38 38 38 39 39 40 40 41 42 42 43 43 43 45 46 46 47 48 49 49 50 51 52 51 51 51 51 51 51 52 53 53 54 54 54
39 38 39 41 42 42 42 42 41 39 39 38 38 39 39 39 39 39 40 40 41 41 43 43 44 44 45 46 47 48 48 49 49 50 50 51 51 51 50 51 51 51 51 51 52 53 54 54 54
39 39 39 41 42 43 43 42 41 39 38 38 38 38 38 39 39 40 41 41 42 42 43 44 45 45 46 47 47 48 48 48 49 49 50 50 50 50 50 51 51 51 51 51 51 52 53 54 54
39 38 39 41 42 43 43 42 41 39 39 38 38 39 38 39 40 40 40 41 42 43 44 45 45 46 46 46 47 47 47 48 48 49 49 50 50 50 49 50 50 50 51 52 52 51 51 52 52
39 39 40 41 42 43 43 42 40 40 39 38 38 39 39 41 41 41 41 42 43 44 44 45 45 46 46 46 46 47 48 48 48 49 49 49 49 49 49 49 50 51 52 52 52 51 51 51 51
41 40 40 41 42 42 43 44 41 40 39 39 39 39 40 41 41 41 41 42 43 44 44 45 45 45 45 46 46 47 47 47 48 48 48 48 49 49 49 50 50 51 51 52 52 52 51 52 52
Wind_Direction
241 240 241 241 242 243 246 246 246 246 247 249 250 251 252 253 255 258 260 261 261 260 260 259 257 255 254 253 253 253 254 255 256 258 261 262 263 264 266 268 266 265 266 267 269 271 273 274 275
241 241 241 242 243 244 245 247 249 249 250 250 251 252 253 254 256 259 262 263 262 260 259 260 259 257 256 254 254 254 255 255 256 258 261 263 264 265 266 267 267 268 268 269 269 271 272 274 275
240 240 241 242 244 245 248 251 251 252 253 253 253 255 256 257 258 260 263 263 262 261 261 261 260 259 257 256 255 255 255 256 257 258 260 262 263 265 267 267 267 268 269 269 270 271 272 273 274
240 240 241 242 243 245 249 252 254 254 255 255 255 256 256 258 259 262 263 262 263 263 263 263 262 260 259 257 256 256 257 257 258 258 259 260 262 264 266 267 267 268 269 269 270 271 272 273 274
240 240 240 241 242 245 247 251 255 254 255 256 256 257 257 257 259 261 262 263 263 264 265 265 264 262 260 259 257 257 258 258 259 259 259 260 261 264 266 266 266 267 268 269 270 271 272 274 275
241 242 242 242 243 246 248 251 254 255 255 257 258 258 259 259 261 262 263 264 264 265 266 266 264 264 262 259 258 259 259 260 260 260 261 261 262 263 265 266 266 266 267 268 268 269 271 272 274
243 243 244 245 246 247 249 250 253 256 257 258 259 260 260 262 263 264 265 265 265 265 266 266 265 264 263 261 260 260 260 261 262 262 263 263 264 264 265 266 266 266 266 267 268 269 270 271 272
245 245 246 247 248 249 250 251 252 255 258 260 261 262 263 264 265 265 265 265 265 264 265 265 265 264 263 262 261 261 262 263 263 264 264 264 264 265 266 267 267 267 267 268 269 269 270 270 271
246 247 248 248 249 250 251 252 253 256 258 261 262 264 265 265 265 265 265 265 265 265 264 264 265 264 263 264 263 262 262 263 264 264 264 264 265 266 266 266 267 268 268 269 269 270 271 271 271
247 248 250 250 251 251 253 254 255 257 260 261 262 263 265 265 265 265 266 266 265 265 264 264 264 265 265 264 264 264 263 264 264 264 264 265 265 266 266 266 267 268 269 269 270 270 272 273 273
249 251 251 252 253 254 256 257 257 259 261 262 262 262 264 265 266 267 267 267 266 265 265 265 265 266 266 265 265 264 264 264 263 264 264 265 265 266 267 267 267 268 269 269 271 272 272 273 273
251 251 252 253 254 255 257 258 259 261 262 262 263 264 264 265 267 268 268 268 268 267 266 267 267 267 267 266 264 264 263 263 263 264 264 264 264 265 267 267 268 269 270 270 270 272 273 273 274
253 253 254 256 257 258 258 258 260 262 264 264 265 265 266 267 268 268 268 268 269 269 268 268 268 268 268 267 266 264 263 263 263 264 265 265 265 265 266 267 268 269 270 270 271 271 272 273 274
254 255 256 257 258 260 261 260 261 263 264 265 266 266 266 267 268 268 269 269 270 271 271 271 270 269 268 267 266 265 263 263 264 264 265 266 266 266 267 267 268 269 270 270 271 272 272 273 274
254 255 256 258 260 261 262 262 264 264 265 266 267 267 267 268 268 269 270 271 271 272 273 273 272 271 270 269 267 265 263 263 263 264 265 266 267 268 268 268 269 270 270 271 271 272 273 273 274
254 256 257 258 260 261 264 264 264 265 266 267 268 269 269 269 269 270 271 272 273 274 275 274 274 271 270 269 266 265 264 264 264 264 265 266 268 269 269 269 270 271 271 271 271 272 273 273 274
254 257 258 259 260 262 264 266 265 265 267 269 270 270 270 271 271 271 272 273 274 275 276 275 275 272 270 268 266 264 263 263 264 264 265 267 268 269 270 269 270 271 271 270 271 272 272 273 273
258 259 260 261 262 263 265 266 267 268 269 271 272 272 272 273 273 274 273 274 275 276 277 276 276 275 272 269 266 264 264 264 264 265 265 267 268 269 270 271 270 270 270 270 270 271 272 272 272
259 261 262 263 263 264 265 267 268 269 270 271 273 273 273 274 275 275 275 275 275 275 276 276 277 275 273 270 268 266 266 266 266 266 266 268 269 270 271 271 271 271 270 270 271 271 271 272 272
259 261 262 264 265 265 266 267 268 269 271 272 273 273 274 275 275 276 275 275 275 275 275 275 276 275 274 272 270 268 267 267 266 266 267 269 270 271 271 272 272 271 271 271 271 271 271 271 271
259 261 263 265 266 266 267 268 268 269 270 272 273 274 274 275 277 277 276 274 274 274 275 275 275 275 275 274 272 270 269 268 267 267 268 270 271 272 273 273 272 271 271 272 272 272 272 271 271
259 261 263 264 266 267 268 269 268 269 270 272 274 275 276 276 276 276 275 274 274 274 274 275 275 275 275 275 274 273 271 269 268 268 268 270 272 273 273 273 272 271 272 272 272 271 272 272 272
259 261 263 264 266 267 268 270 270 271 271 272 274 276 276 277 278 277 276 275 274 273 274 275 276 276 276 276 275 274 273 272 270 269 270 271 274 275 274 274 273 271 272 272 272 271 272 272 272
259 260 262 263 265 266 269 272 272 272 274 274 274 275 276 276 277 277 276 275 274 274 274 275 276 277 277 276 276 275 274 273 273 272 271 272 274 276 275 275 274 272 272 272 272 271 272 272 272
258 259 262 264 265 268 271 271 272 274 275 276 275 275 275 276 276 277 277 276 275 275 275 275 275 277 278 277 276 276 275 275 275 274 273 274 275 276 275 275 275 273 273 273 272 272 272 272 272
258 258 261 265 268 270 270 271 273 275 276 277 276 276 276 276 277 277 276 276 276 276 276 276 276 277 278 278 278 277 276 276 276 276 275 275 275 275 276 275 275 274 274 273 273 272 272 271 272
257 258 260 263 265 268 269 272 274 275 276 276 277 277 277 277 278 278 277 277 277 277 277 276 277 278 279 278 278 278 277 278 278 277 276 276 276 276 276 275 275 275 275 275 275 274 272 272 272
258 259 260 261 264 267 270 272 274 275 277 278 278 279 279 278 277 279 279 278 277 278 277 277 278 279 279 279 278 278 278 278 278 277 276 276 277 277 276 276 275 275 276 277 277 275 273 272 272
258 257 258 261 263 267 270 273 276 277 278 279 280 280 280 280 280 280 280 279 279 280 279 279 279 279 279 279 279 278 278 278 277 277 277 276 276 276 276 277 277 277 277 277 278 277 275 273 273
257 257 258 259 263 266 270 272 275 277 278 279 280 280 280 281 281 281 281 280 280 281 280 280 280 280 280 280 280 280 279 279 278 278 277 276 277 277 277 278 278 279 279 278 278 277 275 274 274
Height
5821 5822 5824 5826 5828 5830 5830 5832 5832 5834 5835 5836 5837 5838 5840 5841 5842 5845 5844 5844 5846 5847 5848 5848 5849 5849 5850 5851 5852 5853 5853 5854 5855 5855 5856 5856 5857 5857 5857 5858 5858 5858 5858 5858 5858 5859 5859 5859 5858
5817 5819 5821 5823 5824 5826 5828 5828 5829 5830 5832 5833 5834 5835 5836 5837 5838 5839 5840 5841 5842 5844 5845 5845 5846 5846 5847 5848 5849 5850 5850 5851 5852 5852 5853 5854 5854 5855 5855 5855 5856 5856 5856 5856 5856 5856 5856 5856 5856
5813 5814 5817 5819 5820 5822 5824 5825 5826 5827 5829 5830 5831 5832 5834 5834 5835 5836 5837 5838 5839 5840 5841 5842 5842 5843 5844 5844 5845 5846 5847 5848 5849 5849 5850 5850 5851 5852 5852 5853 5853 5853 5853 5854 5854 5854 5854 5854 5854
5809 5811 5813 5816 5817 5819 5820 5821 5822 5824 5825 5826 5827 5829 5830 5831 5831 5832 5833 5834 5835 5836 5837 5838 5838 5839 5840 5840 5841 5842 5843 5844 5845 5846 5846 5847 5848 5848 5849 5849 5849 5850 5850 5850 5851 5851 5851 5851 5850
5804 5806 5809 5811 5813 5814 5815 5817 5818 5820 5821 5822 5823 5825 5825 5827 5827 5828 5829 5830 5831 5832 5832 5833 5834 5834 5835 5836 5837 5838 5839 5840 5841 5841 5842 5843 5844 5844 5845 5845 5846 5846 5846 5847 5847 5847 5847 5847 5847
5800 5802 5805 5806 5808 5810 5811 5813 5814 5815 5817 5818 5819 5820 5821 5822 5823 5824 5824 5825 5826 5827 5828 5828 5829 5830 5830 5831 5832 5833 5834 5835 5836 5837 5838 5838 5839 5840 5840 5841 5841 5842 5842 5843 5843 5843 5843 5843 5843
5796 5798 5800 5802 5803 5805 5807 5808 5809 5810 5812 5813 5814 5815 5816 5817 5819 5819 5820 5821 5821 5822 5823 5823 5824 5825 5825 5826 5827 5828 5829 5830 5831 5832 5833 5834 5834 5835 5836 5836 5837 5837 5837 5838 5838 5838 5838 5838 5838
5790 5793 5795 5797 5798 5800 5801 5803 5804 5805 5807 5808 5809 5810 5811 5813 5813 5814 5815 5815 5816 5817 5817 5818 5819 5819 5820 5821 5822 5823 5824 5825 5826 5826 5827 5828 5829 5830 5830 5831 5831 5832 5832 5832 5832 5833 5833 5833 5833
5785 5789 5790 5792 5793 5795 5796 5797 5799 5800 5802 5803 5804 5805 5806 5806 5807 5808 5809 5810 5810 5811 5812 5812 5813 5814 5815 5816 5816 5817 5818 5819 5820 5821 5821 5822 5823 5824 5825 5825 5825 5826 5826 5827 5827 5827 5827 5827 5827
5780 5783 5785 5787 5787 5789 5790 5792 5793 5795 5796 5797 5798 5799 5799 5800 5801 5802 5803 5803 5804 5805 5805 5806 5807 5808 5809 5810 5810 5811 5812 5813 5814 5815 5815 5816 5817 5818 5818 5819 5819 5820 5820 5820 5821 5821 5821 5821 5821
5775 5778 5779 5780 5781 5782 5784 5786 5787 5788 5790 5791 5792 5792 5793 5794 5794 5795 5796 5796 5797 5798 5799 5799 5800 5801 5802 5803 5804 5804 5805 5806 5807 5808 5809 5810 5810 5811 5812 5812 5813 5813 5814 5814 5814 5814 5814 5814 5814
5769 5772 5773 5774 5775 5776 5778 5779 5781 5782 5784 5783 5784 5785 5786 5787 5787 5788 5789 5789 5790 5790 5791 5792 5792 5793 5794 5795 5796 5797 5798 5799 5800 5801 5802 5803 5803 5804 5805 5805 5806 5806 5807 5807 5807 5807 5807 5807 5807
5763 5765 5766 5767 5768 5770 5771 5772 5773 5775 5776 5776 5777 5778 5779 5780 5780 5780 5781 5781 5782 5782 5783 5784 5784 5784 5786 5786 5787 5789 5790 5791 5792 5793 5794 5795 5796 5796 5797 5797 5798 5799 5799 5799 5799 5800 5799 5799 5800
5756 5758 5759 5760 5762 5763 5764 5765 5766 5769 5768 5769 5769 5770 5771 5772 5772 5772 5773 5773 5773 5774 5774 5774 5775 5775 5776 5777 5778 5780 5781 5782 5784 5785 5785 5786 5787 5788 5789 5789 5790 5790 5791 5791 5791 5791 5791 5791 5791
5750 5752 5753 5754 5755 5756 5757 5759 5760 5760 5760 5761 5761 5762 5762 5763 5763 5764 5765 5764 5764 5764 5764 5764 5765 5765 5766 5767 5768 5770 5772 5773 5775 5776 5777 5777 5778 5779 5780 5780 5781 5781 5782 5782 5782 5782 5782 5782 5782
5743 5744 5747 5749 5749 5749 5751 5753 5753 5752 5752 5753 5753 5754 5754 5754 5754 5755 5755 5755 5755 5755 5755 5754 5754 5755 5755 5756 5758 5760 5762 5764 5765 5767 5767 5768 5769 5770 5770 5771 5771 5772 5772 5772 5772 5773 5773 5773 5773
5736 5738 5739 5741 5742 5742 5743 5745 5746 5745 5744 5745 5745 5745 5745 5745 5745 5746 5746 5746 5746 5746 5745 5745 5744 5744 5744 5745 5747 5749 5751 5753 5755 5757 5758 5758 5759 5760 5760 5761 5761 5761 5761 5762 5762 5762 5762 5763 5762
5729 5730 5732 5733 5734 5734 5735 5737 5738 5737 5737 5737 5736 5736 5736 5736 5737 5737 5737 5737 5737 5736 5736 5735 5735 5734 5734 5735 5736 5738 5741 5742 5744 5746 5747 5748 5749 5749 5749 5750 5750 5750 5750 5750 5751 5751 5751 5751 5751
5722 5723 5724 5725 5725 5725 5726 5728 5730 5729 5729 5729 5728 5727 5727 5727 5727 5727 5727 5727 5727 5727 5727 5726 5726 5725 5725 5726 5727 5728 5731 5732 5734 5735 5736 5737 5737 5737 5737 5737 5738 5738 5738 5739 5739 5739 5739 5739 5739
5713 5714 5716 5717 5717 5717 5718 5719 5721 5721 5721 5721 5720 5719 5718 5718 5718 5718 5718 5718 5718 5718 5718 5717 5717 5717 5716 5717 5718 5719 5721 5722 5723 5724 5724 5725 5725 5725 5725 5725 5725 5725 5725 5725 5726 5726 5726 5727 5726
5705 5707 5708 5708 5708 5709 5709 5710 5713 5713 5712 5712 5712 5711 5710 5710 5709 5709 5709 5709 5709 5709 5709 5709 5708 5708 5708 5708 5708 5709 5709 5710 5711 5712 5713 5713 5713 5712 5712 5712 5712 5712 5712 5712 5712 5712 5712 5713 5713
5697 5698 5699 5699 5699 5700 5701 5699 5704 5704 5704 5704 5703 5702 5702 5701 5701 5700 5700 5700 5700 5700 5700 5700 5699 5699 5698 5698 5698 5698 5698 5698 5699 5700 5701 5700 5699 5699 5699 5698 5698 5698 5698 5698 5698 5698 5698 5698 5699
5689 5690 5690 5690 5690 5690 5692 5690 5695 5695 5695 5695 5694 5693 5693 5692 5692 5691 5691 5691 5691 5690 5691 5690 5690 5689 5688 5688 5687 5687 5686 5687 5687 5687 5687 5687 5687 5686 5685 5684 5683 5683 5683 5683 5683 5683 5683 5683 5684
5680 5681 5681 5681 5680 5681 5684 5682 5684 5686 5685 5685 5685 5684 5683 5683 5682 5682 5682 5682 5682 5682 5681 5680 5680 5679 5678 5677 5676 5675 5675 5675 5675 5675 5675 5674 5674 5673 5672 5670 5669 5669 5669 5668 5668 5668 5668 5668 5668
5671 5673 5672 5671 5671 5673 5675 5673 5675 5677 5676 5675 5675 5675 5674 5674 5673 5673 5672 5672 5672 5672 5671 5670 5669 5669 5667 5666 5665 5664 5664 5663 5662 5662 5662 5661 5660 5659 5658 5657 5656 5655 5654 5654 5653 5653 5654 5653 5653
5663 5664 5665 5664 5663 5664 5665 5664 5667 5668 5667 5666 5665 5664 5664 5664 5663 5663 5663 5663 5662 5662 5661 5660 5659 5658 5657 5655 5653 5652 5651 5650 5649 5648 5648 5647 5646 5646 5645 5644 5642 5642 5641 5640 5639 5638 5638 5638 5638
5653 5654 5656 5655 5654 5653 5655 5657 5658 5658 5658 5657 5656 5655 5654 5654 5653 5653 5653 5652 5652 5651 5650 5649 5648 5647 5645 5643 5642 5640 5639 5637 5636 5635 5634 5633 5632 5632 5631 5630 5629 5628 5627 5626 5625 5624 5624 5623 5623
5644 5645 5646 5645 5644 5644 5646 5648 5649 5649 5649 5648 5647 5645 5645 5645 5644 5644 5643 5642 5641 5640 5639 5638 5637 5635 5633 5632 5630 5628 5627 5625 5623 5622 5621 5620 5619 5618 5618 5617 5616 5614 5613 5612 5611 5610 5609 5608 5608
5635 5637 5636 5636 5636 5636 5636 5641 5641 5640 5639 5639 5638 5637 5636 5635 5634 5633 5633 5632 5631 5629 5628 5626 5625 5623 5621 5619 5617 5616 5614 5612 5610 5609 5608 5607 5606 5605 5604 5603 5602 5601 5600 5598 5597 5595 5595 5594 5594
5625 5627 5628 5629 5628 5628 5627 5632 5632 5631 5630 5630 5629 5628 5626 5625 5625 5624 5623 5622 5620 5619 5617 5615 5613 5611 5609 5607 5605 5603 5601 5600 5598 5596 5595 5594 5593 5592 5591 5590 5588 5587 5585 5584 5583 5581 5580 5580 5580